SL-14 DEB

Satellite information

Favourite Embed

Satellite Type and Status

DEBRISIN ORBIT

Key statistics

Satellite SL-14 DEB at a glance.

Uptime

14187

Days in orbit

Revolutions

≈ 14.0

Per day

Orbit

LEO

Low Earth Orbit

Inclination

82.4

Latest

Satellite identification and parameters

Extended collection of information and parameters for SL-14 DEB.

Object identification

Identified? True

Debris? True

Object name: SL-14 DEB

International designator: 1986-101F

Object number (NORAD): 17271

Object ID (CCSDS): 17271

Country: COMMONWEALTH OF INDEPENDENT STATES (CIS)

Current information (Y/N): Y

RCS size: SMALL

Orbital parameters

Period: 102.692 minutes

Inclination: 82.4071 deg

SMA: 7264.154 km

Apoapsis: 906.059 km

Periapsis: 865.979 km

RAAN: 59.1375 deg

Eccentricy: 0.00275876

Argument of periapsis: 105.3081 deg

Mean anomaly: 48.0143 deg

Mean motion: 14.0224918 rev/day

Mean motion (dot): 0.00001129 rev/day2

B* drag term: 0.00072542618 1/REarth

Two-line elements (TLE)

Creation date: Oct. 21, 2025, 3:26 a.m.

Reference frame: TEME

Reference center: EARTH

Epoch: Oct. 20, 2025, 7:41 p.m. UTC

TLE line 0: 0 SL-14 DEB

TLE line 1: 1 17271U 86101F 25293.82056323 .00001129 00000-0 72543-3 0 9991

TLE line 2: 2 17271 82.4071 59.1375 0027588 105.3081 48.0143 14.02249180978375

Live tracking on map

Real-time ground track for satellite SL-14 DEB.

In-orbit conjunctions

A list of the most updated potential collisions computed for object SL-14 DEB.

Target Orbit TCA Probability of collision Miss distance Type
FENGYUN 1C DEB SSO 2024-09-26 00:16:51 0.0001239368 960.0 (m) DEBRIS
FENGYUN 1C DEB SSO 2024-07-31 21:16:48 0.0002097582 103.0 (m) DEBRIS

Associated space launch

Ionospheric research satellite

SL-14 DEB was lifted into orbit during the mission ‘Tsiklon-3 | Ionozond-E’, on board a Tsiklon-3 space rocket.

The launch took place on Dec. 18, 1986, 8 a.m. from 32/2.

For more information about the launch, click the button.

Launch to space Tsiklon-3 | Ionozond-E
Tsiklon-3 | Ionozond-E

Agency: N/A

Status: Launch Successful

Launch date: Dec. 18, 1986, 8 a.m. UTC

Rocket: Tsiklon-3

Launch pad: 32/2

Location: Plesetsk Cosmodrome, Russian Federation

...

Latest news about this satellite

There are no fresh news available about this satellite. Check back as we update our databases every day.


Newsletter sign-up

Weekly statistics, charts and insights to help you stay on top of the space industry.